Location: *
(32.3300°N, 34.8500°E)
Time: 01:01:09
(UTC+00:00)

Delta 7925 Rocket - Pass Details

Date: 22 October 2019
Orbit: 645 x 1648 km, 26.3° (Epoch: 21 November)

Event Time Altitude Azimuth Distance (km) Brightness Sun altitude
Exits shadow 02:33:52 22° 250° (WSW) 2,074 5.2 -16.6°
Maximum altitude 02:38:01 48° 186° (S) 1,159 4.4 -15.7°
Drops below altitude 10° 02:43:17 10° 113° (ESE) 2,319 7.2 -14.6°
Sets 02:45:35 0° 107° (ESE) 3,148 8.4 -14.1°
